Theta_e
333 339 349 352 351 351 351 353 354 353 353 351 349 349 348 349 348 349 348 348 348 345 343 342 342 342 341 341 340 340 342 344 344 344 342 340 338 337 337 338 339 338 343
335 342 346 350 351 351 351 352 353 353 352 350 349 349 348 348 348 346 348 348 347 344 342 341 341 341 341 342 343 343 342 343 340 340 339 338 339 336 336 336 343 341 343
336 344 345 347 349 350 350 349 350 352 352 351 350 349 349 348 347 346 347 347 347 344 343 341 340 342 344 343 343 341 341 341 339 337 336 331 330 335 334 337 342 342 342
321 338 346 344 348 349 349 349 348 350 352 352 351 351 349 349 348 347 346 346 347 346 345 344 344 343 342 342 342 341 340 339 337 334 330 330 328 333 332 335 339 340 341
311 320 336 343 347 348 349 349 349 349 349 350 351 350 350 349 349 347 347 346 347 346 346 344 343 343 342 342 342 339 336 337 334 332 330 330 329 331 331 332 337 338 338
311 311 323 331 347 348 348 349 348 348 349 348 348 348 349 348 348 347 346 346 346 346 346 343 341 341 342 341 339 336 335 333 332 329 328 330 329 333 333 335 337 338 340
312 311 314 319 332 345 346 348 347 347 348 347 347 347 347 347 347 346 346 346 346 345 346 344 342 341 340 339 338 336 334 332 327 327 328 329 329 334 335 335 334 335 338
309 313 313 315 317 326 343 345 346 346 347 347 347 346 346 346 346 346 346 345 345 345 344 343 341 340 339 338 337 336 332 329 326 326 327 328 332 335 334 332 333 332 336
308 311 313 316 315 318 327 337 341 344 344 345 345 345 343 343 344 344 343 344 344 343 343 342 340 339 339 337 336 334 329 327 326 326 326 327 332 333 332 331 332 334 335
309 309 311 314 314 317 319 323 332 336 340 341 340 338 336 336 338 338 337 341 343 342 342 340 338 338 337 336 334 330 328 327 324 324 326 326 333 332 333 332 333 333 332
307 309 310 310 311 314 317 321 329 330 331 334 335 332 331 341 341 339 336 336 340 340 340 339 338 337 335 332 329 327 326 325 324 324 324 329 332 330 333 334 333 332 332
305 306 308 310 310 313 315 325 329 339 340 341 341 340 341 341 341 339 333 330 335 334 337 337 337 334 329 329 326 324 325 325 325 325 325 329 331 331 334 336 334 333 333
305 307 308 309 310 312 317 324 327 331 338 339 341 340 340 341 340 339 340 336 339 328 335 333 334 331 330 328 327 324 324 325 325 325 325 328 330 331 333 336 336 336 336
304 305 308 310 309 310 315 320 324 322 322 336 337 340 339 339 338 337 337 337 337 335 333 332 331 330 329 330 329 325 323 324 325 325 324 324 328 329 331 333 335 335 335
302 304 306 307 308 309 311 315 319 324 323 323 329 337 340 338 337 336 335 335 334 334 332 331 330 328 327 326 327 325 322 323 324 324 325 319 324 328 331 332 333 335 336
301 303 305 306 308 310 309 311 314 318 323 320 322 332 336 338 338 336 335 332 334 334 333 331 330 328 327 326 325 323 322 322 322 323 322 322 322 326 329 332 332 334 335
299 301 302 305 307 307 307 309 313 315 321 320 320 321 322 334 337 337 335 333 332 334 331 329 328 327 326 323 322 321 320 320 320 321 321 322 322 321 325 329 331 331 333
297 298 300 302 304 306 307 309 309 312 314 318 322 323 321 324 330 336 335 332 332 333 330 327 327 325 324 322 320 317 317 317 319 319 320 320 322 323 321 325 328 331 332
296 297 298 300 302 304 306 309 309 310 314 317 319 322 323 327 331 333 333 333 332 331 331 329 327 325 323 321 322 319 317 316 316 316 316 318 320 322 323 322 322 324 329
295 297 298 300 301 303 305 307 309 310 312 315 319 319 325 326 329 331 331 332 331 329 329 328 326 326 324 323 321 319 320 318 317 316 316 316 318 320 322 323 322 321 320
294 295 297 298 300 302 303 305 307 307 310 312 316 320 319 322 324 327 329 327 330 329 327 328 326 324 324 324 320 318 317 316 315 315 317 317 317 319 321 322 323 324 323
292 294 296 298 300 302 304 305 307 308 309 311 316 315 318 318 319 325 328 327 328 328 326 325 325 322 323 322 316 315 309 313 315 316 315 315 317 319 319 321 322 323 323
291 292 294 296 298 302 303 305 306 308 309 310 311 314 320 318 318 326 327 327 328 327 325 325 324 321 318 318 316 313 305 307 313 316 316 314 314 315 317 320 321 321 322
290 293 293 295 298 302 303 303 304 305 304 307 310 315 319 319 317 317 325 323 322 323 324 324 324 321 320 315 315 316 315 314 309 309 315 314 314 312 315 317 318 319 320
290 291 292 295 297 302 303 302 304 306 307 308 310 312 315 316 316 318 320 323 322 321 323 322 321 321 320 318 315 315 316 314 315 311 309 312 316 314 315 316 318 319 320
290 290 291 293 297 303 303 302 305 304 306 308 310 311 313 314 315 316 319 323 323 322 323 322 322 321 321 321 318 317 315 314 312 310 308 310 312 315 317 318 318 319 321
Wind_Speed
12 15 10 10 12 12 11 11 13 14 15 16 17 16 16 16 16 14 14 14 13 14 13 13 13 13 12 11 11 11 11 11 11 14 13 12 11 12 12 7 2 10 10
13 13 9 9 11 11 11 10 11 14 15 15 15 16 17 16 17 16 13 14 13 14 13 13 14 13 13 11 11 10 13 13 13 15 13 8 7 9 10 8 4 12 12
15 12 12 10 10 10 11 11 11 13 15 16 16 15 16 17 17 16 14 14 13 14 13 12 13 13 13 12 12 14 14 13 13 14 10 8 8 6 6 6 10 13 12
16 17 8 11 11 11 10 11 12 13 13 15 16 16 16 16 17 17 15 13 15 14 13 11 10 13 13 13 13 14 12 13 11 9 9 8 9 4 5 7 11 10 10
14 15 16 8 13 12 11 12 12 13 14 14 16 17 17 17 16 16 15 13 13 13 16 15 13 15 15 13 14 15 14 11 11 10 8 10 5 5 6 2 8 8 3
12 15 14 24 16 15 14 12 14 13 14 14 15 15 16 17 16 15 14 12 12 12 15 16 15 15 13 13 14 17 14 9 9 12 7 11 4 10 7 5 8 8 8
13 10 13 20 21 15 15 15 14 15 15 15 15 15 15 16 16 15 14 14 12 12 12 15 15 14 15 13 14 16 12 11 11 8 6 9 5 9 11 8 6 5 6
12 9 9 10 16 19 14 15 15 15 15 15 16 15 15 15 15 16 15 14 13 13 13 14 15 15 15 14 13 15 9 8 8 7 6 9 7 8 10 7 6 3 4
11 10 8 8 9 11 15 11 14 16 15 14 14 15 14 13 14 14 14 15 14 15 14 15 14 15 16 16 14 13 11 7 9 6 7 6 11 9 10 9 9 7 6
10 9 9 7 8 7 6 12 11 13 15 14 14 12 12 12 12 11 11 14 16 16 14 15 14 14 14 14 13 11 11 8 11 7 7 5 13 9 11 11 11 10 8
9 11 9 9 7 8 7 6 9 12 12 14 13 13 11 13 14 15 14 13 15 14 14 17 16 13 13 12 12 11 10 7 10 6 6 12 10 10 11 12 13 11 11
13 12 10 11 8 7 6 6 6 8 10 13 14 13 12 13 12 15 15 12 12 13 14 16 16 14 11 8 7 9 7 10 9 6 6 12 11 12 11 13 14 14 12
15 12 12 11 10 8 4 3 3 4 4 8 16 14 13 10 10 10 8 9 10 11 9 12 12 9 11 8 9 8 9 9 6 5 6 11 10 12 12 12 16 16 14
18 17 14 12 9 8 6 3 3 3 3 4 8 16 11 8 10 9 8 11 11 10 12 11 8 9 11 11 9 10 10 8 5 5 7 12 9 12 13 11 11 12 11
18 18 17 15 12 8 6 7 4 4 2 4 3 10 12 11 11 10 10 10 10 11 12 11 10 10 9 10 9 8 9 8 8 4 3 12 11 11 12 12 13 13 15
19 19 18 16 14 11 9 9 7 4 3 2 5 6 10 12 12 12 11 10 11 11 11 11 11 10 9 9 9 9 9 8 9 7 5 7 11 11 13 13 14 14 14
16 18 19 18 15 14 13 10 8 7 3 4 3 5 7 9 15 15 12 10 11 12 13 11 11 9 9 9 10 9 8 9 8 9 7 5 8 11 12 14 15 15 15
18 18 18 16 17 16 14 11 8 8 7 4 5 3 6 8 9 14 14 12 11 11 11 12 11 10 10 10 9 9 9 9 10 9 8 7 6 7 11 14 14 15 15
19 19 18 18 18 17 15 12 11 10 9 5 4 4 6 6 10 11 11 12 15 11 12 11 11 11 10 9 9 9 8 8 9 8 9 9 9 7 6 13 16 14 14
18 19 19 15 18 16 12 11 9 9 9 7 6 4 8 4 6 7 5 13 13 11 12 12 14 12 11 11 10 8 8 7 7 8 10 9 9 10 9 9 7 8 15
18 19 19 18 17 13 10 9 10 9 8 9 7 7 2 5 6 6 5 12 8 11 15 16 14 15 11 10 8 6 5 7 8 8 8 8 11 11 11 10 7 6 7
19 19 19 18 18 14 10 9 9 8 8 7 6 8 8 3 1 8 6 7 14 9 16 15 15 11 9 8 6 6 5 6 8 10 9 10 12 10 11 11 11 10 8
19 18 18 20 21 18 17 10 10 9 8 7 7 7 8 5 3 6 7 7 14 10 11 13 12 15 10 7 10 5 3 4 5 9 14 11 12 10 10 10 12 11 11
18 16 17 19 19 18 17 13 16 10 10 8 8 5 5 6 3 4 4 3 4 3 7 11 9 9 9 8 6 5 1 2 3 3 4 10 10 11 11 9 10 11 11
17 14 16 18 18 19 15 14 12 12 8 7 7 8 8 4 4 1 1 10 8 7 8 11 7 10 4 3 7 4 8 4 1 1 2 3 3 8 8 8 7 8 8
15 13 15 17 18 16 12 14 14 12 10 7 7 6 7 5 4 4 5 4 8 9 12 11 14 14 12 10 8 8 6 6 8 6 5 5 4 6 7 7 8 7 6
Wind_Direction
333 326 164 190 175 185 184 182 171 174 171 167 164 165 163 164 159 158 156 154 152 151 154 156 156 155 150 147 146 141 138 134 143 121 114 116 125 120 113 113 162 112 108
318 308 191 185 177 200 191 193 178 175 173 173 172 168 166 171 166 168 165 160 163 159 158 162 162 160 157 157 149 141 133 108 102 97 97 104 97 130 117 62 19 110 106
342 315 185 188 182 206 200 198 190 183 175 177 177 177 172 174 173 175 175 172 172 163 157 167 168 170 157 146 141 135 128 115 111 117 127 144 135 147 113 92 104 111 98
350 334 183 188 188 196 206 204 208 190 185 181 180 181 178 176 176 178 176 178 176 168 162 154 164 169 154 149 138 131 126 116 114 127 178 141 132 144 140 128 98 96 93
7 351 359 204 193 193 203 197 205 201 196 193 190 184 180 181 180 179 178 181 175 170 158 153 140 140 142 139 134 122 120 120 137 187 162 119 114 152 170 77 125 111 64
18 1 360 355 208 194 197 203 198 203 200 202 196 192 188 186 183 179 181 179 172 170 177 161 152 144 145 144 137 120 124 127 165 202 152 109 147 172 179 114 83 88 89
351 8 1 9 356 219 202 199 205 204 203 203 200 200 195 190 184 186 180 183 177 182 189 171 157 154 144 147 139 124 135 151 198 159 166 135 169 187 180 162 123 119 119
340 357 350 6 360 354 244 206 202 211 211 205 203 202 195 194 187 183 184 187 189 184 171 166 160 151 145 145 139 131 144 174 226 172 172 159 147 190 182 196 176 179 156
333 333 349 347 357 346 353 268 214 206 211 212 205 200 197 189 185 183 184 189 191 185 179 170 163 157 153 152 145 142 150 189 224 190 192 192 153 193 189 201 224 193 168
325 326 342 341 343 334 334 327 259 228 205 205 205 202 196 185 183 185 182 197 197 184 178 168 167 161 164 151 143 144 154 194 237 193 212 195 156 196 203 201 198 201 204
323 323 333 334 337 325 321 303 292 232 244 215 207 203 191 208 202 193 197 179 185 180 175 168 164 169 160 150 146 156 160 203 219 192 203 137 158 194 229 200 212 214 218
322 325 323 327 324 321 314 318 304 270 220 225 217 206 207 212 207 201 187 172 178 167 169 170 164 161 166 174 166 161 196 207 211 201 210 144 172 203 230 230 210 221 226
313 310 315 315 318 309 278 292 296 307 254 234 221 212 206 211 211 206 184 180 183 178 179 175 173 170 194 186 186 193 211 222 210 211 183 148 186 214 231 232 208 216 220
309 302 303 304 308 306 301 267 280 296 345 283 239 215 208 205 211 206 196 185 191 184 193 186 183 179 194 228 202 188 211 216 212 209 176 156 191 220 228 229 221 218 217
305 306 305 303 296 291 293 290 281 274 265 301 306 248 214 205 206 196 206 185 195 187 192 188 187 188 193 219 213 205 210 218 224 224 217 168 184 216 231 233 236 232 229
315 309 304 298 293 284 272 275 274 270 271 263 298 298 242 216 203 196 201 198 193 196 190 188 190 186 189 204 212 211 219 212 225 220 225 180 187 201 224 234 242 246 238
309 306 302 297 287 278 275 265 265 260 226 237 247 283 344 257 217 192 198 201 194 186 191 194 192 184 189 193 208 207 216 217 219 223 226 235 188 201 216 229 237 242 244
309 302 302 297 292 286 277 268 256 250 246 229 233 211 281 263 268 219 195 193 193 194 190 196 188 183 188 189 196 201 204 210 214 224 221 223 226 204 208 222 233 240 244
307 302 296 293 288 282 276 270 257 256 246 237 235 229 249 275 262 244 243 190 181 185 191 191 190 188 180 190 200 197 199 209 208 213 224 224 222 219 220 200 213 224 232
304 300 295 288 285 285 276 267 259 239 244 228 236 219 223 250 279 242 228 226 191 180 190 193 189 189 182 188 198 200 198 209 209 210 216 220 221 222 222 234 190 217 225
304 301 299 291 286 278 271 257 243 244 231 233 216 238 197 210 273 273 262 220 221 216 190 192 191 183 187 187 180 188 213 217 218 223 219 218 218 221 219 219 220 218 215
310 302 300 297 291 278 268 260 261 248 237 243 211 229 225 196 94 254 244 241 220 203 194 199 187 181 188 173 158 154 184 207 229 227 217 219 223 220 219 219 219 218 224
315 313 313 304 293 280 270 270 252 251 252 242 227 242 219 209 289 208 218 236 211 212 206 197 203 176 170 177 173 148 153 213 187 195 219 219 221 220 221 216 220 222 220
313 313 307 296 284 278 263 254 254 234 232 230 234 243 232 220 236 45 144 150 152 164 185 189 193 169 179 181 190 230 140 124 191 178 201 219 226 224 219 220 223 221 220
314 322 308 300 293 275 257 250 244 234 250 255 256 210 238 215 235 35 352 189 204 165 184 162 161 153 131 177 207 194 222 192 260 193 162 199 232 232 221 218 220 225 218
318 324 316 309 306 282 247 242 237 240 235 239 254 253 249 248 267 303 71 227 201 203 182 175 174 165 167 212 205 211 199 184 205 200 215 236 233 193 217 209 223 224 213